CAPE
0 0 0 0 0 0 0 0 0 0 0 0 0 0 0 0 0 0 0 0 0 0 0 0 0 0 0 0 0 0 0 0 0 0 0 0 0 0 0 0 0 0 0 0
0 0 0 0 0 0 0 0 0 0 0 0 0 0 0 0 0 0 0 0 0 0 0 0 0 0 0 0 0 0 0 0 0 0 0 0 0 0 0 0 0 0 0 0
0 0 0 0 0 0 0 0 0 0 0 0 0 0 0 0 0 0 0 0 0 0 0 0 0 0 0 0 0 0 0 0 0 0 0 0 0 0 0 0 0 0 0 0
0 0 0 0 0 0 0 0 0 0 0 0 0 0 0 0 0 0 0 0 0 0 0 0 0 0 0 0 0 0 0 0 0 0 0 0 0 0 0 0 0 0 0 0
0 0 0 0 0 0 0 0 0 0 0 0 0 0 0 0 0 0 0 0 0 0 0 0 0 0 0 0 0 15 30 16 17 31 20 15 0 0 0 0 0 0 0 0
0 0 0 0 0 0 0 0 0 0 0 0 0 0 0 0 0 0 0 0 0 0 0 0 0 0 0 0 0 29 83 88 52 84 74 71 49 23 4 0 0 0 0 0
0 0 0 0 0 0 0 0 0 0 0 0 0 0 0 0 0 0 0 0 0 0 0 0 0 0 0 0 0 0 2 60 118 78 80 112 91 62 57 2 0 0 0 0
0 0 0 0 0 0 0 0 0 0 0 0 0 0 0 0 0 0 0 0 1 0 0 0 0 0 0 0 0 0 7 19 34 60 67 81 113 91 53 20 5 0 0 0
0 0 0 0 0 0 0 0 0 0 0 0 0 0 0 0 0 0 0 0 0 0 0 0 0 0 0 0 0 0 0 0 0 0 2 0 0 29 29 3 0 0 0 0
0 0 0 0 0 0 0 0 0 0 0 0 0 0 0 0 0 0 0 0 0 0 0 0 0 0 0 0 0 0 0 0 0 0 0 0 0 0 0 0 0 0 0 0
0 0 0 0 0 0 0 0 0 0 0 0 0 0 0 0 0 0 0 0 0 0 0 0 0 0 0 0 0 0 0 0 0 0 0 0 0 0 0 0 0 0 0 0
0 0 0 0 0 0 0 0 0 0 0 0 0 0 0 1 8 13 38 15 8 0 0 0 0 0 0 0 0 0 0 0 0 0 0 0 0 0 0 0 0 0 0 0
0 0 0 0 0 0 0 0 0 0 0 0 2 0 19 0 4 0 0 0 0 0 0 0 0 0 0 0 0 0 0 0 0 0 0 0 0 0 0 0 0 0 0 0
0 0 0 0 0 0 0 0 0 0 0 0 0 1 0 1 0 0 0 0 0 0 0 0 0 0 0 0 0 0 0 0 0 0 0 0 0 0 0 0 0 0 0 0
0 0 0 0 0 0 0 0 0 0 0 0 0 0 25 0 0 0 0 0 0 0 0 0 0 0 0 0 0 0 0 0 0 0 0 0 0 0 0 0 0 0 0 0
0 0 0 0 0 0 0 0 0 0 0 0 0 0 5 0 0 0 0 0 0 0 0 0 0 0 0 0 0 0 0 0 0 0 0 0 0 0 0 0 0 0 0 0
0 0 0 0 0 0 0 0 0 0 0 0 3 0 0 0 0 0 0 0 0 0 0 0 0 0 0 0 0 0 0 0 0 0 0 0 0 0 0 0 0 0 0 0
0 0 0 0 0 0 0 0 0 0 0 0 1 0 2 0 0 0 0 3 0 0 0 0 0 0 0 0 0 0 0 0 0 0 0 1 0 0 0 0 0 0 0 0
0 0 0 0 0 0 0 0 0 0 0 0 8 1 0 0 0 0 0 0 0 0 0 0 0 0 0 0 0 0 0 0 1 1 7 8 7 1 0 0 0 0 0 2
0 0 0 0 0 0 0 0 0 0 0 0 0 0 0 0 0 0 0 0 0 0 0 0 0 0 0 0 0 0 0 12 8 15 15 9 7 6 3 2 0 0 1 3
0 0 0 0 0 0 0 0 0 0 0 0 14 1 1 8 5 0 0 0 0 0 0 0 0 0 0 0 2 17 18 0 22 20 13 8 6 4 5 1 0 0 1 2
0 0 0 0 0 0 0 0 5 4 0 9 0 0 0 0 0 0 0 0 0 0 0 0 0 0 0 3 14 17 18 20 14 9 8 5 4 4 7 0 0 2 0 6
0 0 0 0 0 0 0 0 0 11 7 0 0 0 0 0 0 0 0 0 0 0 0 0 0 0 3 12 21 23 9 8 8 7 3 2 2 1 0 0 0 1 2 1
0 0 0 0 0 0 0 0 0 0 0 0 0 0 0 0 0 0 0 0 0 0 0 0 1 3 15 12 9 9 8 4 4 3 2 2 1 0 0 0 1 9 3 3
0 0 0 0 0 0 0 0 0 0 0 0 0 0 0 0 0 0 0 0 0 0 0 2 8 18 10 7 6 3 1 0 1 1 1 1 0 0 0 1 5 8 9 4
0 0 0 0 0 3 0 0 0 0 0 0 0 0 0 0 0 0 0 0 0 0 0 3 14 14 6 5 4 0 0 0 7 0 1 0 0 0 1 1 2 9 7 12
CIN
-0 -0 -0 -0 -0 -0 -0 -0 -0 -0 -0 -0 -0 -0 -0 -0 -0 -0 -0 -0 -0 -0 -0 -0 -0 -0 -0 -0 -0 -0 -0 -0 -0 -0 -0 -0 -0 -0 -0 -0 -0 -0 -0 -0
-0 -0 -0 -0 -0 -0 -0 -0 -0 -0 -0 -0 -0 -0 -0 -0 -0 -0 -0 -0 -0 -0 -0 -0 -0 -0 -0 -0 -0 -0 -0 -0 -0 -0 -0 -0 -0 -0 -0 -0 -0 -0 -0 -0
-0 -0 -0 -0 -0 -0 -0 -0 -0 -0 -0 -0 -0 -0 -0 -0 -0 -0 -0 -0 -0 -0 -0 -0 -0 -0 -0 -0 -0 -0 -0 -0 -0 -0 -0 -0 -0 -0 -0 -0 -0 -0 -0 -0
-0 -0 -0 -0 -0 -0 -0 -0 -0 -0 -0 -0 -0 -0 -0 -0 -0 -0 -0 -0 -0 -0 -0 -0 -0 -0 -0 -0 -0 -0 -0 -0 -0 -0 -0 -0 -0 -0 -0 -0 -0 -0 -0 -0
-0 -0 -0 -0 -0 -0 -0 -0 -0 -0 -0 -0 -0 -0 -0 -0 -0 -0 -0 -0 -0 -0 -0 -0 -0 -0 -0 -0 -1 -33 -26 -18 -19 -18 -19 -28 -2 -0 -0 -0 -0 -0 -0 -0
-0 -0 -0 -0 -0 -0 -0 -0 -0 -0 -0 -0 -0 -0 -0 -0 -0 -0 -0 -0 -0 -0 -0 -0 -0 -0 -0 -0 -0 -17 -17 -18 -3 -16 -23 -24 -29 -42 -42 -0 -0 -0 -0 -0
-0 -0 -0 -0 -0 -0 -0 -0 -0 -0 -0 -0 -0 -0 -0 -0 -0 -0 -0 -0 -0 -0 -0 -0 -0 -0 -0 -0 -0 -0 -67 -21 -14 -20 -21 -17 -24 -27 -33 -11 -0 -0 -0 -0
-0 -0 -0 -0 -0 -0 -0 -0 -0 -0 -0 -0 -0 -0 -0 -0 -0 -0 -0 -0 -8 -0 -0 -0 -0 -0 -0 -0 -0 -0 -31 -30 -19 -15 -19 -28 -27 -38 -44 -32 -31 -0 -0 -0
-0 -0 -0 -0 -0 -0 -0 -0 -0 -0 -0 -0 -0 -0 -0 -0 -0 -0 -0 -0 -0 -0 -0 -0 -0 -0 -0 -0 -0 -0 -0 -0 -0 -0 -35 -0 -0 -24 -29 -28 -0 -0 -0 -0
-0 -0 -0 -0 -0 -0 -0 -0 -0 -0 -0 -0 -0 -0 -0 -0 -0 -0 -0 -0 -0 -0 -0 -0 -0 -0 -0 -0 -0 -0 -0 -0 -0 -0 -0 -0 -0 -0 -0 -0 -0 -0 -0 -0
-0 -0 -0 -0 -0 -0 -0 -0 -0 -0 -0 -0 -0 -0 -0 -0 -0 -0 -0 -0 -0 -0 -0 -0 -0 -0 -0 -0 -0 -0 -0 -0 -0 -0 -0 -0 -0 -0 -0 -0 -0 -0 -0 -0
-0 -0 -0 -0 -0 -0 -0 -0 -0 -0 -0 -0 -0 -0 -0 -13 -13 -12 -13 -10 -31 -0 -0 -0 -0 -0 -0 -0 -0 -0 -0 -0 -0 -0 -0 -0 -0 -0 -0 -0 -0 -0 -0 -0
-0 -0 -0 -0 -0 -0 -0 -0 -0 -0 -0 -0 -2 -0 -0 -17 -62 -0 -5 -0 -0 -0 -0 -0 -0 -0 -0 -0 -0 -0 -0 -0 -0 -0 -0 -0 -0 -0 -0 -0 -0 -0 -0 -0
-0 -0 -0 -0 -0 -0 -0 -0 -0 -1 -4 -2 -2 -8 -0 -7 -0 -0 -0 -0 -0 -0 -0 -0 -0 -0 -0 -0 -0 -0 -0 -0 -0 -0 -0 -0 -0 -0 -0 -0 -0 -0 -0 -0
-0 -0 -0 -0 -0 -0 -0 -0 -0 -0 -0 -0 -0 -0 -29 -0 -0 -0 -0 -0 -0 -0 -0 -0 -0 -0 -0 -0 -0 -0 -0 -0 -0 -0 -0 -0 -0 -0 -0 -0 -0 -0 -0 -1
-0 -0 -0 -0 -0 -0 -0 -0 -0 -0 -0 -0 -0 -0 -40 -0 -0 -0 -0 -0 -0 -0 -0 -0 -0 -0 -0 -0 -0 -0 -0 -0 -0 -0 -0 -0 -0 -0 -0 -0 -0 -0 -0 -0
-0 -0 -0 -0 -0 -0 -0 -0 -0 -0 -0 -0 -2 -5 -0 -0 -0 -0 -0 -0 -3 -0 -0 -0 -0 -0 -0 -0 -0 -0 -0 -0 -0 -0 -0 -0 -0 -0 -0 -0 -0 -0 -0 -0
-0 -0 -0 -0 -0 -0 -0 -0 -0 -0 -0 -0 -4 -1 -5 -0 -0 -0 -0 -14 -0 -0 -0 -0 -0 -0 -0 -0 -0 -0 -0 -0 -0 -0 -0 -8 -0 -0 -0 -0 -0 -0 -0 -0
-0 -0 -0 -0 -0 -0 -0 -0 -0 -0 -0 -0 -28 -18 -0 -0 -0 -0 -0 -0 -0 -0 -0 -0 -0 -0 -0 -0 -0 -0 -0 -0 -0 -0 -0 -1 -0 -2 -1 -2 -2 -0 -0 -1
-0 -0 -0 -0 -0 -0 -0 -0 -0 -0 -0 -0 -0 -0 -0 -6 -0 -0 -0 -0 -0 -0 -0 -0 -0 -0 -0 -0 -0 -0 -0 -0 -0 -0 -0 -0 -0 -0 -0 -1 -2 -0 -1 -0
-0 -0 -0 -0 -0 -0 -0 -0 -0 -1 -0 -0 -2 -1 -0 -1 -1 -0 -0 -0 -0 -0 -0 -0 -0 -0 -0 -0 -0 -0 -0 -0 -0 -0 -0 -0 -0 -0 -1 -2 -0 -0 -0 -0
-0 -0 -0 -0 -0 -0 -0 -0 -0 -1 -0 -0 -0 -0 -0 -0 -0 -0 -0 -0 -0 -0 -0 -0 -0 -0 -0 -1 -1 -0 -0 -0 -0 -0 -0 -0 -0 -0 -1 -0 -0 -0 -0 -0
-0 -0 -0 -0 -0 -0 -0 -0 -0 -0 -1 -0 -0 -0 -0 -0 -0 -0 -0 -0 -0 -0 -0 -0 -0 -0 -3 -0 -0 -0 -0 -0 -0 -0 -0 -0 -0 -3 -0 -1 -0 -0 -0 -0
-0 -0 -0 -0 -0 -0 -0 -0 -0 -0 -0 -0 -1 -0 -0 -0 -0 -0 -0 -0 -0 -0 -0 -0 -0 -0 -0 -0 -0 -0 -0 -0 -0 -0 -0 -0 -3 -0 -0 -0 -0 -1 -0 -0
-0 -0 -0 -0 -0 -0 -0 -0 -0 -0 -0 -0 -0 -0 -0 -0 -0 -0 -0 -0 -0 -0 -0 -1 -0 -0 -0 -0 -0 -0 -0 -0 -0 -0 -0 -0 -0 -1 -0 -0 -2 -1 -0 -0
-0 -0 -0 -0 -1 -3 -0 -0 -0 -0 -0 -0 -0 -0 -0 -0 -0 -0 -0 -0 -0 -0 -0 -0 -0 -0 -0 -0 -0 -0 -0 -13 -2 -0 -2 -0 -0 -0 -0 -0 -0 -0 -0 -0
Wind_Speed
11 11 8 8 5 4 6 7 11 10 9 15 8 17 15 10 9 8 6 7 9 9 8 8 6 6 7 7 7 8 8 8 6 4 6 5 5 5 6 7 9 13 11 9
7 9 7 7 8 9 7 8 7 11 12 17 14 20 7 10 8 9 10 9 8 9 10 9 9 8 8 8 5 6 6 6 5 4 4 4 5 4 4 5 9 10 13 13
9 5 8 2 7 12 10 6 9 14 21 17 10 5 6 9 10 7 6 9 10 9 9 9 12 11 10 9 6 2 4 6 5 5 4 4 4 4 4 5 5 6 10 12
6 8 5 5 6 10 8 9 15 18 13 4 7 9 2 10 9 5 10 9 8 9 9 11 13 12 12 11 14 4 4 4 5 3 3 6 4 6 5 6 6 8 9 10
4 5 8 5 5 6 6 12 20 20 17 13 9 3 4 9 9 12 11 10 10 11 13 13 12 12 11 9 7 5 5 6 6 5 4 4 5 4 5 6 10 10 8 7
4 3 4 6 12 9 9 14 24 14 8 2 12 6 4 5 6 5 8 9 9 10 9 9 10 13 12 9 9 7 8 7 6 6 7 7 7 7 6 9 8 8 7 8
4 5 5 8 8 5 17 10 7 6 1 6 21 10 7 9 6 8 10 9 8 8 7 8 8 9 10 11 10 10 10 8 6 7 8 8 7 8 9 9 7 8 8 9
5 1 7 7 4 7 10 4 2 7 4 14 13 3 3 7 6 8 8 7 10 9 8 7 7 8 8 9 9 9 9 9 8 8 8 8 8 5 7 7 6 6 8 9
7 2 1 6 2 3 7 7 5 6 11 10 5 5 10 17 22 15 18 14 12 10 10 8 8 8 8 8 8 8 8 8 10 9 7 7 9 8 6 8 6 6 8 8
4 7 1 4 4 5 2 1 4 3 5 7 8 23 10 24 27 21 17 17 15 11 11 11 8 8 7 7 7 8 8 10 10 9 7 8 8 12 11 7 10 10 9 10
6 3 1 9 6 7 3 5 5 5 4 8 12 8 18 22 21 20 16 18 15 12 11 10 10 9 7 8 8 9 9 8 8 8 8 9 9 9 10 10 9 10 12 13
7 4 5 11 10 8 7 8 6 3 8 7 11 17 10 22 24 21 16 14 16 15 14 14 11 9 10 10 8 9 9 8 9 8 8 10 11 8 10 10 12 14 14 12
9 2 5 1 3 2 6 7 10 10 7 15 11 13 16 21 21 23 24 20 13 18 20 17 9 7 9 12 11 9 9 10 11 13 11 11 11 11 9 12 15 15 16 14
3 3 3 5 10 10 16 17 9 7 8 14 13 21 18 16 17 19 24 19 18 18 20 17 13 13 13 13 11 10 11 11 12 13 13 12 11 9 11 13 15 15 16 16
4 3 7 10 15 16 15 18 13 10 12 7 17 19 11 14 21 17 17 20 20 19 20 19 18 16 14 13 12 12 13 14 13 12 14 15 12 12 12 14 14 15 17 14
4 4 10 10 10 16 18 12 16 16 16 14 18 20 13 14 18 19 19 17 17 19 21 21 20 18 16 15 15 15 15 16 13 14 14 16 14 13 14 11 14 16 16 18
3 4 6 4 16 18 2 11 11 12 13 14 19 14 19 20 19 19 22 12 17 20 22 21 20 18 16 16 16 17 17 15 16 16 17 13 16 16 15 14 16 17 18 18
4 5 3 6 10 5 5 10 13 16 17 20 9 17 19 21 19 17 13 12 20 23 23 21 19 16 17 16 16 16 17 16 16 17 15 16 14 16 16 16 16 17 16 19
3 3 3 3 6 13 3 18 18 19 23 11 18 22 22 22 21 14 13 19 22 21 20 19 16 19 18 18 18 18 18 17 15 16 16 14 14 16 16 16 16 14 15 17
1 2 3 4 1 4 11 18 16 17 12 22 23 21 22 23 17 16 22 23 23 22 20 18 20 19 18 19 18 18 18 16 17 15 15 14 14 14 14 15 15 13 13 14
3 2 3 5 3 7 13 18 16 8 11 25 20 20 20 15 15 22 23 22 21 21 20 22 19 18 19 19 17 16 19 19 15 14 14 13 13 13 12 13 12 11 13 9
1 1 3 3 3 5 21 17 14 11 15 19 20 19 20 20 21 21 22 22 22 21 23 22 19 18 20 18 19 20 17 16 14 13 13 12 11 10 9 11 10 11 3 4
2 6 4 4 5 16 12 16 12 14 16 18 20 19 19 20 20 21 20 21 20 22 21 19 21 24 19 20 17 18 18 16 14 12 11 10 10 9 9 8 9 7 6 6
1 4 1 4 5 10 16 13 17 16 18 20 17 18 17 18 19 20 18 18 19 19 19 20 23 23 24 19 20 17 16 14 12 10 9 7 7 8 7 6 5 5 6 7
4 3 4 6 10 18 7 15 16 19 18 19 19 17 16 16 18 15 17 18 18 19 20 20 21 22 22 21 19 17 16 13 9 6 6 5 5 5 7 3 7 7 7 6
2 2 2 6 10 11 16 19 19 18 19 18 14 16 16 11 14 15 16 16 17 20 21 21 22 22 22 19 18 16 11 10 2 1 2 3 3 4 2 9 11 23 21 20
Wind_Direction
39 62 40 9 36 321 273 311 306 343 318 336 281 287 276 269 134 121 89 57 44 19 12 58 33 6 352 349 35 15 359 351 346 357 354 339 332 333 319 316 330 342 327 327
89 56 15 337 29 342 323 303 331 298 335 314 294 290 332 51 61 56 61 37 27 24 9 348 353 359 4 344 19 16 349 344 349 12 338 327 330 307 315 332 329 320 333 324
70 36 338 4 45 356 339 23 327 300 320 283 313 290 118 84 89 91 108 52 29 19 346 350 354 345 348 334 321 341 357 360 348 2 328 321 319 320 323 320 313 317 319 313
59 28 353 30 39 0 315 13 314 300 313 305 14 287 329 132 114 139 64 47 10 5 352 349 346 347 346 334 319 347 9 328 305 321 311 315 304 315 303 309 306 309 305 301
75 30 2 25 0 340 292 324 290 285 280 289 292 341 98 146 85 52 36 19 13 10 354 342 349 342 339 332 314 329 326 299 285 273 259 263 281 277 296 299 299 304 300 305
80 83 40 359 322 296 299 311 292 265 231 248 41 359 267 59 61 54 27 17 9 351 343 347 355 346 330 319 314 308 287 269 283 284 272 260 260 278 289 293 292 299 304 306
183 102 103 7 327 342 1 347 332 353 253 264 14 341 60 84 68 20 12 6 346 343 356 353 346 341 338 339 333 333 337 317 300 283 288 273 255 264 267 277 282 296 303 305
345 299 14 23 42 313 317 358 347 297 334 299 325 294 72 122 55 17 7 359 352 346 348 343 343 326 320 318 318 321 317 320 315 304 293 287 269 255 259 261 276 283 292 293
347 325 312 78 340 3 2 47 298 284 261 264 250 318 336 341 354 7 357 358 344 357 350 342 337 318 319 323 323 322 321 316 313 299 305 308 307 288 277 281 278 285 284 293
42 288 356 306 264 167 228 216 21 289 310 306 306 310 301 344 339 348 352 354 353 354 355 339 327 319 308 322 325 325 317 310 306 310 306 312 306 306 298 294 294 290 287 299
346 219 296 323 21 30 12 353 349 339 309 290 303 289 344 308 336 335 7 346 349 344 333 319 319 311 315 328 326 317 311 312 319 314 312 310 300 294 300 297 295 300 301 299
38 317 302 313 86 85 75 28 359 13 306 299 282 286 308 341 345 349 346 345 343 340 340 329 316 331 338 329 317 315 314 322 316 308 306 300 297 297 299 297 301 295 293 294
348 347 316 191 110 135 22 355 327 297 288 283 288 292 322 1 352 343 340 320 343 340 329 320 315 332 330 323 317 316 323 324 323 311 305 299 298 296 295 297 293 294 295 302
269 289 292 266 299 327 312 310 297 273 270 282 294 321 352 353 345 344 316 327 337 340 322 333 338 334 326 319 316 325 318 315 307 304 303 297 294 285 293 296 302 305 309 303
27 286 315 323 300 293 295 335 348 4 347 342 331 334 355 349 320 306 312 323 341 329 323 333 327 321 320 318 322 316 313 311 309 302 302 297 293 294 296 301 305 312 304 302
69 289 323 300 308 336 314 1 357 355 354 336 333 326 3 322 312 322 332 348 330 317 323 323 316 318 317 315 310 310 309 309 310 306 301 299 299 299 301 320 325 313 318 308
348 327 335 289 345 298 70 22 357 346 332 329 334 344 327 319 323 328 325 333 303 326 317 315 319 316 315 313 315 311 307 310 309 304 296 316 325 323 318 318 317 313 310 308
327 347 337 300 335 14 22 22 6 345 328 322 4 325 320 325 318 317 315 276 322 319 315 318 311 315 315 311 310 312 310 309 306 309 315 310 312 309 311 314 312 310 311 308
17 9 342 316 339 277 267 25 4 345 317 8 338 331 326 325 318 315 325 324 314 309 311 311 314 315 314 317 312 310 309 308 314 311 303 306 310 307 309 308 305 313 313 310
113 151 115 334 308 306 18 3 350 323 290 1 335 322 328 328 323 319 324 316 310 312 309 313 317 314 318 315 311 316 324 317 309 313 309 311 301 298 300 301 303 314 309 311
22 18 218 268 262 263 10 353 342 334 320 319 324 321 321 319 308 307 312 308 309 308 317 317 319 317 316 315 327 317 309 313 309 309 310 302 299 298 297 296 310 315 312 316
118 79 262 348 283 301 357 331 354 315 311 316 318 316 312 308 306 311 309 309 312 321 321 323 319 321 316 323 327 310 310 310 307 305 300 297 297 299 303 304 309 317 309 77
213 187 195 172 265 307 306 335 331 334 320 315 307 305 305 309 311 311 310 314 324 321 322 325 325 316 330 320 318 311 309 305 302 299 295 297 300 299 296 308 323 331 53 64
355 89 257 3 244 314 331 323 321 328 315 313 315 313 310 310 312 313 317 325 321 324 329 324 321 324 317 321 315 310 305 297 292 290 290 298 293 303 310 320 309 67 72 83
246 36 307 304 328 321 303 317 321 323 316 315 312 309 315 310 308 318 326 325 325 328 323 321 330 318 318 318 315 313 305 295 285 280 283 309 299 319 320 3 82 77 60 79
67 30 307 310 328 312 311 321 324 322 313 310 320 315 310 313 331 332 326 326 329 327 326 334 323 325 320 319 316 312 311 326 343 303 309 312 338 327 9 80 77 76 84 90